EGPKEGPC

Guest
Details From EGPK - Prestwick
To EGPC - Wick
Flight Number -
Tags generated
Created
Modified
Stats Distance 186 nm / 344 km
Max Altitude 17,500 ft / 5,334 m
Waypoints 3
Social Downloads 4
Likes 0
Share

Download

Looking for another format? Having issues loading an existing format? Contact us
Advertisement - Login to hide

Notes

Basic altitude profile: - Ascent Rate: 500ft/min - Ascent Speed: 80kts - Cruise Altitude: 500ft - Cruise Speed: 90kts - Descent Rate: 500ft/min - Descent Speed: 80kts Options: - Use NATs: yes - Use PACOTS: yes - Use low airways: yes - Use high airways: yes

Route

EGPK GUSSI EGPC

ID Type Via Altitude (ft/m) Position (lat/lon) Dist (leg/tot) Name
O EGPK APT - 0 / 0 55.50230 / -4.58836 - / 0 nm Prestwick
GUSSI FIX - 17,500 / 5,334 57.21306 / -4.12417 103 / 103 nm
O EGPC APT - 0 / 0 58.45787 / -3.09298 81 / 185 nm Wick

Altitude Profile

Advertisement - Login to hide

Weather


0- 5 10 15 20 25 30 35+ Temperature / °C

Clouds and Precipitation
Forecast for 2021-08-02 12:00 UTC. Updated 2 hours ago

Ground ~20,000 ft ~40,000 ft Winds

EGPK

Details ICAO EGPK (PIK)
Name Prestwick
Region United Kingdom
Timezone Europe/London (UTC+1.0)
Stats Elevation 65 ft / 20 m (AMSL)
Location 55.509400° -4.594440°
Runways 2
Magnetic Variation 2.113° W

METAR

EGPK 021120Z 27008KT 240V300 9999 FEW032 16/07 Q1014

Decode

TAF

TAF EGPK 020455Z 0206/0306 12003KT 9999 FEW030 BECMG 0209/0212 27010KT BECMG 0218/0221 14005KT

Decode

Departure Runways

ID Width Length Bearing (true/mag) Surface Threshold Overrun Markings Lighting
03 148 ft / 45 m 6,243 ft / 1,903 m 23.68° / 25.79° ASPHALT 259 ft / 79 m 276 ft / 84 m UK-APP EDGE THRESHOLD REIL-OMNI
12 151 ft / 46 m 9,775 ft / 2,979 m 121.39° / 123.50° ASPHALT 791 ft / 241 m 0 ft / 0 m UK-PREC-APP CENTERLINE EDGE THRESHOLD CALVERT-ILS REIL-OMNI
21 148 ft / 45 m 6,243 ft / 1,903 m 203.69° / 205.80° ASPHALT 0 ft / 0 m 0 ft / 0 m UK-PREC-APP EDGE THRESHOLD MALS REIL-OMNI
30 151 ft / 46 m 9,775 ft / 2,979 m 301.42° / 303.53° ASPHALT 0 ft / 0 m 0 ft / 0 m UK-PREC-APP CENTERLINE EDGE THRESHOLD CALVERT-ILS REIL-OMNI

EGPC

Details ICAO EGPC (WIC)
Name Wick
Region United Kingdom
Timezone Europe/London (UTC+1.0)
Stats Elevation 125 ft / 38 m (AMSL)
Location 58.458800° -3.092960°
Runways 1
Magnetic Variation 1.964° W

METAR

EGPC 021120Z VRB03KT 9999 BKN020 12/07 Q1014

Decode

TAF

Not found

Destination Runways

ID Width Length Bearing (true/mag) Surface Threshold Overrun Markings Lighting
13 148 ft / 45 m 5,992 ft / 1,826 m 127.02° / 128.98° ASPHALT 814 ft / 248 m 0 ft / 0 m UK-APP EDGE THRESHOLD MALS REIL-UNI
31 148 ft / 45 m 5,992 ft / 1,826 m 307.04° / 309.00° ASPHALT 1,010 ft / 308 m 0 ft / 0 m UK-APP EDGE THRESHOLD MALS REIL-UNI

Popular Alternatives